Vertical_Velocity
2 1 2 2 -1 -1 -2 -19 -2 -9 -3 -4 2 -0 24 0 -7 -3 -2 -4 -1 1 0 -1 -1 -1 -2 -1 -1 -0 -0 -0 0 -1 -0 -0 -1 0 -0 -1 -0 1 -1 1 1 1 1 1 -1
1 1 2 4 0 2 -8 -7 6 -7 -5 -3 -1 -4 7 -8 3 -1 0 -1 1 2 1 -1 -1 -0 -2 -2 -1 -2 -1 1 1 -1 -1 -0 -1 -1 0 -0 -0 0 -2 -1 1 -1 1 -1 -0
2 2 7 0 -3 -14 -9 17 16 -1 -7 2 -1 3 8 -8 3 -2 -1 1 -4 5 2 0 -1 0 -0 -2 -1 -2 -2 -0 1 0 0 1 0 -1 -1 -0 0 -1 -1 -0 -0 -0 -0 -0 -1
0 1 4 1 -7 1 -3 -6 18 -5 -3 1 0 1 7 -7 -7 3 0 -0 -2 1 2 -0 1 1 0 -2 -0 -1 -0 -2 -1 -1 -1 0 0 0 -0 -1 -1 0 -1 -1 -0 -0 -1 -1 -0
-1 3 2 -5 -7 -5 11 0 -2 -3 -1 -0 -1 -3 1 -1 0 2 0 -0 -0 -4 -1 -0 -1 -0 0 -0 -1 -1 -0 -0 -1 -1 -2 -1 -1 1 1 -0 -1 -1 -2 -1 -1 -1 -0 -1 -1
-0 2 2 -7 -2 -3 11 2 1 -3 -1 3 1 3 -0 2 -1 -1 0 -2 -2 3 -1 -1 -1 -1 -2 -0 -1 -0 0 0 0 -1 -1 -1 -1 -1 -1 -0 -0 -0 -1 -2 -0 -0 -1 -1 -1
1 4 -6 2 -6 7 15 -6 -1 -1 5 -5 5 4 -2 2 0 0 1 -1 -0 -0 2 -2 -0 -1 -0 -1 -0 -0 0 0 0 -1 -1 -2 -1 -1 -1 -1 -0 -1 -1 -1 -1 -0 -1 -1 -1
3 4 -3 -3 -8 2 2 -8 1 -2 5 2 3 4 -3 -5 5 2 -0 0 -0 -6 8 1 -1 -2 -1 1 -0 -0 0 -1 -1 -0 1 -1 -1 -1 -1 -1 -1 -0 0 0 -0 -0 1 -1 -1
9 -2 -9 -6 -3 -7 4 -4 -1 6 6 -5 5 -4 -5 -6 4 0 1 -1 1 -0 -4 3 1 -0 -2 -1 -1 -1 0 -1 -2 -1 1 -1 -1 -1 -1 -0 -1 -2 -0 -1 -1 1 -1 -1 1
-2 -4 -8 -3 9 12 5 1 5 -0 -3 -3 3 1 -5 5 2 1 -0 2 1 -1 -2 1 -1 -1 -1 -1 -2 -0 -2 -0 -1 -0 1 -3 -3 -1 1 -0 0 -1 -0 -1 -1 1 0 -0 -1
-1 -24 12 -3 12 6 -1 1 -2 7 2 3 -0 4 -4 -0 -1 0 0 0 3 1 -0 -1 -1 -2 -1 -2 -1 -0 -1 -1 -0 0 -0 -4 -1 2 1 -0 0 -1 0 -0 -1 -1 1 0 -1
-5 -9 3 5 2 3 -0 3 -4 2 4 4 3 0 2 0 -2 0 -0 1 -1 2 2 -1 1 -2 -2 -2 -3 -0 -1 -1 0 1 -2 -5 1 -2 3 -1 -1 -1 1 -0 0 -1 -1 1 0
-1 -3 1 10 -4 1 5 -3 3 1 1 2 -0 -6 3 -3 1 1 0 -2 0 -0 1 1 0 -1 -1 -0 -0 0 0 -2 -2 -1 1 -3 -1 -0 2 -1 -0 -2 0 2 -1 -0 -0 -2 1
-2 6 7 4 -2 3 -0 2 5 -1 -1 3 3 -0 1 0 1 1 -0 1 1 -1 -1 1 -1 -0 -1 -0 -1 -1 2 1 -2 3 -1 -0 -2 -1 -2 1 -1 -0 -1 3 -2 2 -1 -2 -0
10 -4 2 -1 1 -2 2 -1 -15 4 0 -3 4 1 1 2 0 -0 3 2 1 1 1 0 1 -0 -0 -0 -1 1 0 -1 1 3 -1 1 -1 -1 1 -2 -2 3 -5 2 -2 0 1 -1 1
4 7 8 -4 9 -1 4 -10 0 8 5 2 -2 3 1 3 4 3 -0 0 -0 2 1 1 2 2 1 2 3 0 1 -0 -2 1 -0 -1 -2 -1 2 -2 -2 -0 -2 2 -3 -2 0 -2 -1
2 -2 -0 2 7 1 2 -5 10 -2 0 1 0 1 3 3 5 3 2 1 1 3 2 1 0 1 1 0 2 3 2 -1 -3 -1 -1 -0 -1 -1 1 1 -1 -5 -2 3 -2 -1 -1 0 -2
-11 -4 3 -10 -14 6 -5 -7 -0 -5 4 3 2 0 -1 2 -3 -0 -3 -4 -5 -2 -2 0 0 -1 2 -0 0 2 1 1 -2 -2 -1 0 -1 1 -1 -1 1 -0 -2 2 -3 0 -2 2 -3
19 8 -8 5 4 9 -3 -1 4 7 6 6 4 1 -1 -4 -6 -4 -2 1 4 4 3 2 1 3 0 -1 -3 5 4 4 1 2 1 -1 -0 -3 2 1 -1 -0 3 -2 4 -0 -2 1 -3
-5 9 3 3 6 15 11 -1 2 0 9 -0 3 -3 -2 -3 1 2 -4 -7 -4 -3 0 -1 -1 1 -1 -2 -1 1 3 1 1 2 2 -1 -2 -2 2 1 -1 0 -0 -2 -1 -2 -8 -4 -7
-0 -16 7 7 6 17 7 8 -3 20 -2 0 5 2 3 2 -6 -6 2 3 -2 0 -4 -3 -0 -1 -1 -1 -5 0 -1 -1 -2 -2 -1 0 -0 -0 1 1 0 0 -0 -2 -1 -0 10 -1 -2
12 1 2 -6 21 -7 -1 -3 -10 12 9 5 -2 0 -1 -4 0 3 1 1 -0 -1 -2 3 -0 2 -1 -2 -4 -2 2 2 4 2 5 4 2 1 1 1 1 3 1 -1 2 3 1 -4 8
-32 8 -3 -5 19 2 7 4 -24 31 13 -0 -2 0 2 -3 2 -0 1 -1 -2 -3 -1 -1 1 -1 2 -1 1 0 1 1 2 1 0 -1 -2 -1 1 0 1 -1 -3 -1 1 0 -0 1 2
13 11 10 24 17 15 -8 -9 10 12 -2 -7 -5 -1 2 -4 3 -1 -1 -1 -2 -1 -0 -0 -1 2 -0 1 -1 1 2 1 2 1 -0 -1 2 -0 -1 0 1 0 1 -0 0 2 2 1 1
23 27 5 14 11 -12 4 24 8 12 2 -0 -5 -4 -3 -5 1 -1 -1 -1 -0 -2 -1 -0 -2 0 -0 1 -0 3 3 0 1 1 -3 -1 0 -2 0 2 0 1 2 -0 0 -0 2 1 1
-9 -8 -9 -7 -3 -3 17 3 17 5 7 1 -0 -1 -1 -3 -1 -1 -1 -1 -2 -2 -2 -1 -2 -1 -1 1 2 4 2 0 0 -1 1 -4 3 -0 1 1 1 2 0 0 -1 -1 -0 -0 -1
19 10 -39 4 3 11 2 4 13 7 3 4 -0 -2 -1 -2 -4 -2 -2 -2 -1 -1 -1 -1 -1 -2 -1 -1 4 2 1 1 1 2 -1 3 -2 0 -0 -1 -1 -1 1 2 -1 -1 -1 0 2
-2 29 31 14 5 3 5 1 3 4 1 0 1 0 1 -1 0 -3 -3 -1 1 -2 -1 1 -1 -1 1 2 -0 -1 2 1 3 3 -0 0 1 1 -1 -2 -1 1 2 -1 -0 -1 -1 -0 1
-2 2 -8 6 0 -7 -1 5 12 8 1 -1 -1 -1 -2 -2 -1 -2 -1 -0 -0 -1 -2 -2 0 -2 -0 2 2 3 -0 -1 0 1 0 -1 2 -1 -0 4 2 -2 -3 -1 -1 -0 1 -0 -3
10 3 4 4 3 6 -2 8 3 2 1 0 1 1 0 -0 -0 0 -2 -0 -1 2 -1 0 1 4 -3 3 1 2 3 0 -0 1 1 2 -0 -1 -1 -1 -0 5 5 3 1 0 -3 -1 -1
Height
3114 3118 3121 3124 3130 3125 3122 3124 3127 3129 3130 3132 3133 3137 3141 3139 3141 3144 3143 3146 3150 3152 3155 3157 3158 3160 3161 3162 3163 3163 3164 3166 3168 3169 3171 3173 3175 3177 3178 3180 3182 3183 3184 3186 3188 3189 3190 3190 3190
3110 3114 3118 3119 3122 3120 3118 3123 3125 3126 3127 3128 3132 3134 3137 3137 3140 3140 3142 3144 3149 3152 3154 3157 3158 3160 3162 3163 3164 3165 3165 3167 3168 3170 3172 3174 3176 3177 3179 3181 3183 3185 3185 3187 3188 3189 3191 3191 3192
3108 3111 3115 3115 3114 3114 3118 3120 3122 3124 3123 3127 3130 3134 3137 3135 3138 3139 3141 3144 3147 3151 3153 3155 3158 3160 3161 3163 3165 3166 3167 3168 3170 3171 3173 3174 3176 3178 3179 3181 3183 3185 3186 3188 3189 3190 3191 3192 3193
3105 3108 3111 3109 3108 3111 3115 3118 3120 3119 3122 3125 3128 3132 3133 3131 3134 3138 3141 3143 3145 3150 3152 3154 3157 3159 3161 3163 3164 3166 3168 3169 3170 3172 3174 3175 3176 3178 3179 3182 3183 3185 3186 3188 3190 3191 3192 3193 3194
3101 3105 3106 3104 3105 3109 3116 3115 3118 3116 3121 3123 3126 3128 3130 3132 3134 3137 3140 3142 3144 3147 3151 3153 3155 3158 3160 3162 3164 3165 3167 3169 3170 3172 3173 3176 3177 3178 3179 3181 3183 3185 3187 3188 3190 3192 3193 3194 3195
3098 3101 3102 3101 3103 3107 3111 3110 3114 3115 3118 3121 3125 3126 3128 3130 3132 3135 3138 3140 3142 3146 3149 3152 3154 3156 3158 3160 3162 3165 3167 3168 3170 3171 3173 3175 3177 3178 3179 3181 3182 3184 3187 3189 3191 3192 3193 3194 3195
3095 3098 3096 3099 3102 3105 3108 3108 3111 3114 3117 3118 3123 3124 3125 3127 3131 3134 3136 3138 3140 3143 3147 3149 3152 3154 3156 3158 3160 3163 3166 3168 3169 3170 3172 3174 3176 3178 3180 3181 3182 3184 3186 3188 3190 3192 3193 3194 3195
3094 3095 3093 3096 3098 3103 3103 3104 3107 3112 3116 3117 3120 3121 3122 3124 3129 3131 3133 3136 3138 3140 3144 3146 3148 3151 3154 3156 3159 3161 3164 3166 3168 3170 3172 3173 3175 3177 3179 3181 3182 3183 3185 3187 3190 3191 3193 3194 3195
3090 3090 3086 3092 3097 3100 3100 3101 3104 3109 3112 3112 3116 3116 3118 3122 3127 3129 3131 3133 3136 3138 3141 3143 3146 3148 3151 3153 3156 3159 3162 3164 3167 3170 3171 3173 3175 3177 3179 3181 3182 3183 3185 3187 3189 3191 3192 3194 3195
3081 3081 3082 3090 3096 3098 3096 3099 3101 3104 3105 3107 3111 3115 3116 3121 3123 3126 3128 3131 3134 3137 3139 3141 3143 3146 3148 3151 3153 3157 3160 3162 3165 3168 3170 3172 3174 3176 3179 3180 3182 3184 3185 3187 3189 3191 3192 3193 3195
3075 3073 3083 3085 3089 3091 3090 3095 3096 3100 3101 3105 3107 3112 3113 3118 3121 3123 3126 3129 3132 3135 3137 3139 3142 3144 3146 3148 3151 3154 3157 3160 3163 3166 3168 3170 3173 3176 3178 3180 3181 3183 3185 3186 3188 3190 3192 3193 3194
3069 3071 3077 3082 3083 3086 3088 3091 3091 3094 3098 3101 3104 3108 3111 3115 3118 3121 3123 3126 3129 3132 3135 3137 3140 3142 3144 3146 3149 3151 3155 3158 3161 3163 3166 3168 3172 3174 3177 3178 3181 3182 3184 3186 3188 3189 3191 3193 3193
3060 3067 3071 3076 3075 3078 3082 3084 3088 3090 3092 3096 3098 3102 3107 3111 3114 3117 3121 3123 3126 3129 3132 3135 3137 3140 3143 3145 3147 3149 3152 3155 3158 3161 3163 3166 3170 3172 3176 3177 3179 3181 3184 3185 3186 3188 3189 3191 3193
3058 3062 3065 3068 3069 3072 3076 3079 3080 3086 3087 3091 3096 3098 3103 3107 3110 3113 3117 3120 3123 3125 3129 3132 3135 3138 3140 3142 3145 3148 3151 3153 3156 3158 3161 3164 3167 3170 3172 3176 3178 3179 3182 3184 3185 3186 3188 3189 3191
3054 3056 3057 3059 3063 3064 3068 3070 3069 3081 3083 3086 3092 3095 3099 3102 3106 3109 3113 3116 3119 3122 3124 3128 3131 3134 3137 3140 3142 3145 3148 3151 3154 3157 3158 3162 3165 3167 3169 3172 3175 3178 3179 3182 3183 3184 3186 3187 3189
3046 3050 3046 3047 3056 3056 3061 3060 3069 3076 3078 3081 3085 3090 3094 3098 3102 3105 3108 3111 3114 3117 3120 3123 3126 3129 3133 3136 3139 3142 3144 3147 3150 3153 3155 3157 3160 3164 3167 3168 3171 3174 3176 3180 3181 3183 3184 3185 3187
3033 3028 3034 3044 3046 3051 3052 3055 3065 3067 3070 3076 3081 3084 3088 3093 3097 3100 3103 3105 3108 3111 3114 3118 3121 3125 3128 3131 3134 3138 3140 3143 3145 3149 3151 3153 3155 3159 3162 3165 3168 3170 3172 3177 3178 3181 3182 3183 3184
3016 3026 3032 3034 3041 3046 3045 3050 3058 3062 3066 3070 3073 3077 3081 3085 3088 3090 3094 3098 3102 3106 3110 3113 3116 3119 3122 3124 3128 3131 3135 3138 3141 3143 3146 3149 3151 3154 3158 3161 3164 3166 3168 3172 3174 3177 3179 3180 3181
3015 3018 3020 3027 3034 3037 3036 3044 3050 3054 3058 3062 3065 3070 3071 3072 3077 3084 3090 3093 3097 3100 3103 3107 3110 3114 3116 3119 3122 3126 3129 3132 3135 3138 3140 3143 3146 3149 3153 3156 3158 3161 3164 3167 3170 3171 3175 3176 3178
3011 3013 3014 3025 3030 3030 3033 3036 3045 3047 3053 3055 3056 3059 3062 3067 3073 3078 3082 3084 3088 3092 3096 3100 3104 3107 3110 3113 3116 3120 3123 3125 3129 3133 3135 3138 3140 3142 3147 3150 3151 3154 3158 3161 3164 3168 3171 3170 3175
2996 3002 3009 3018 3023 3023 3029 3032 3036 3045 3044 3047 3050 3054 3057 3061 3064 3067 3073 3079 3082 3085 3088 3092 3097 3100 3103 3107 3109 3113 3115 3118 3121 3125 3129 3131 3133 3135 3140 3144 3146 3149 3151 3154 3157 3162 3163 3167 3167
2989 2996 3009 3012 3015 3014 3020 3022 3029 3036 3034 3037 3040 3046 3048 3050 3054 3061 3066 3070 3074 3078 3082 3086 3089 3093 3095 3097 3100 3104 3109 3112 3117 3120 3123 3124 3126 3129 3133 3137 3140 3142 3144 3147 3151 3155 3158 3161 3162
2977 2995 2999 3007 3008 3011 3013 3020 3015 3026 3025 3026 3031 3035 3038 3040 3045 3051 3056 3061 3065 3069 3073 3077 3081 3084 3086 3088 3090 3096 3100 3105 3109 3111 3114 3116 3119 3122 3125 3128 3132 3135 3137 3140 3143 3146 3149 3153 3157
2979 2987 2992 2996 3001 3002 3003 3008 3011 3014 3014 3015 3021 3026 3029 3031 3036 3042 3047 3051 3055 3059 3063 3067 3070 3073 3076 3077 3080 3087 3091 3097 3100 3103 3106 3109 3112 3114 3117 3120 3124 3127 3130 3132 3135 3139 3141 3144 3149
2966 2973 2977 2986 2985 2983 2992 3002 3004 3004 3007 3008 3011 3019 3022 3024 3029 3033 3037 3041 3044 3049 3053 3056 3059 3062 3065 3066 3070 3077 3082 3087 3091 3096 3097 3102 3105 3108 3111 3114 3117 3119 3123 3125 3128 3131 3133 3136 3140
2952 2956 2956 2961 2969 2977 2984 2987 2998 3000 2998 2999 3005 3011 3015 3018 3021 3025 3030 3033 3036 3039 3042 3045 3048 3052 3054 3057 3061 3068 3073 3078 3083 3087 3090 3093 3098 3102 3105 3107 3109 3113 3116 3118 3121 3123 3127 3129 3132
2943 2943 2952 2959 2962 2971 2977 2989 2993 2994 2996 2998 3001 3006 3011 3014 3017 3019 3023 3026 3028 3030 3033 3037 3040 3043 3046 3050 3055 3059 3064 3069 3074 3079 3082 3086 3091 3095 3097 3099 3102 3105 3109 3112 3114 3116 3120 3122 3126
2936 2938 2946 2948 2951 2959 2974 2983 2987 2991 2992 2994 2996 3000 3004 3007 3011 3014 3016 3018 3021 3024 3027 3031 3034 3037 3040 3044 3047 3052 3057 3062 3067 3072 3075 3080 3084 3088 3090 3092 3095 3098 3101 3104 3106 3108 3112 3115 3118
2939 2929 2935 2939 2944 2944 2967 2986 2986 2984 2984 2987 2991 2995 2999 3003 3005 3007 3011 3014 3017 3021 3024 3026 3030 3032 3035 3038 3042 3046 3050 3055 3060 3064 3069 3073 3077 3079 3084 3087 3088 3091 3093 3096 3097 3098 3101 3105 3109
2945 2938 2943 2936 2936 2943 2952 2982 2982 2981 2983 2986 2989 2991 2994 2997 3000 3003 3007 3011 3013 3016 3020 3023 3025 3029 3031 3034 3037 3041 3045 3050 3054 3059 3063 3066 3069 3072 3075 3078 3081 3083 3085 3086 3086 3087 3088 3092 3096